[[{"header":{"parameterUnit":"m.s-1","parameterCategory":1,"la1":30.2991,"la2":30.254,"lo1":-89.0895,"lo2":-89.0444,"dy":0.0017,"dx":0.0017,"nx":28,"ny":28,"refTime":"2023-07-27T21:00:00:Z","depth":0,"parameterNumber":2,"parameterNumberName":"U-component_of_WINDS"},"data":[0,0,0,0,0,0,0,0,0,0,0,0,0,0,0,0,0,0,0,0,0,0,0,0,0,0,0,0,0,0,0,0,0,0,0,0,0,0,0,0,0,0,0,0,0,0,0,0,0,0,0,0,0,0,0,0,0,0,1.4291,1.4292,0,1.4392,1.4393,1.4394,1.4412,1.4412,1.4411,1.441,1.4517,1.452,1.4524,0,0,0,0,0,0,0,0,0,0,0,0,0,1.4116,1.4119,1.4291,1.4292,1.4293,1.4392,1.4393,1.4395,1.4413,1.4412,1.4411,1.441,1.4516,1.452,1.4524,0,0,0,0,0,0,0,0,0,0,0,0,0,1.4202,1.412,1.429,1.4314,1.4317,1.4391,1.4393,1.4395,1.4413,1.4412,1.441,1.4409,1.4514,1.4519,1.4525,1.4584,0,0,1.4541,1.4544,0,0,0,0,0,0,0,0,1.4197,1.4208,1.4309,1.4313,1.4316,1.4388,1.4371,1.4458,1.4413,1.4377,1.441,1.4408,1.4475,1.4484,1.4506,1.4589,1.4593,1.4542,1.4545,1.4548,1.4549,0,0,0,0,0,0,0,1.4191,1.4204,1.4331,1.4311,1.4315,1.432,1.4331,1.4387,1.4432,1.438,1.4381,1.4393,1.4477,1.45,1.4508,1.4595,1.4542,1.4547,1.455,1.4552,1.4732,1.4733,0,0,0,0,0,0,1.418,1.4199,1.4328,1.4334,1.4252,1.4325,1.4337,1.4366,1.4431,1.444,1.4394,1.4393,1.4492,1.4502,1.4512,1.4586,1.4547,1.4553,1.4556,1.473,1.4732,1.4734,0,0,0,0,0,0,1.4177,1.4192,1.4324,1.4267,1.4284,1.4329,1.4362,1.4369,1.4393,1.4442,1.445,1.4409,1.4491,1.4504,1.4566,1.459,1.4555,1.456,1.4729,1.4731,1.4733,1.4733,0,0,0,0,0,0,1.4171,1.419,1.4212,1.4267,1.4287,1.4374,1.4364,1.4372,1.4402,1.4402,1.4459,1.4467,1.4491,1.4557,1.4571,1.4596,1.4564,1.4727,1.473,1.4732,1.4731,1.4735,1.4738,0,0,0,0,0,1.4165,1.4209,1.4213,1.4229,1.4315,1.4376,1.4387,1.4413,1.4403,1.4426,1.4458,1.4465,1.4585,1.4563,1.4579,1.4606,1.4725,1.4729,1.4732,1.4729,1.4734,1.4738,0,0,0,0,0,0,1.4157,1.4216,1.4222,1.4285,1.4325,1.4379,1.4409,1.4417,1.4462,1.446,1.4492,1.4504,1.4564,1.4591,1.4567,1.4667,1.4654,1.4661,1.4647,1.4652,1.4655,1.4648,1.4569,0,0,0,0,0,1.4162,1.4205,1.4255,1.4306,1.4325,1.4363,1.4391,1.4407,1.445,1.4468,1.4504,1.4547,1.4594,1.4624,1.467,1.4735,1.4748,1.4761,1.4765,1.4768,1.4773,1.4809,1.4816,1.4745,1.4745,1.4745,0,0,1.4173,1.4211,1.4237,1.4305,1.4338,1.4383,1.4378,1.4425,1.4459,1.4476,1.4535,1.4563,1.4613,1.4676,1.4705,1.4701,1.4796,1.4772,1.4774,1.4778,1.4814,1.482,1.4826,1.4747,1.4747,1.4746,0,0,1.4217,1.425,1.4296,1.4329,1.4379,1.4404,1.4415,1.4467,1.4486,1.4546,1.456,1.4601,1.4681,1.4716,1.4744,1.4801,1.481,1.4816,1.4835,1.487,1.4875,1.4881,1.4901,1.4908,1.4821,1.4821,1.4821,0,1.4226,1.4293,1.4319,1.4366,1.4395,1.4411,1.4458,1.4489,1.4552,1.4573,1.4566,1.4667,1.4702,1.4773,1.4787,1.4809,1.4823,1.481,1.4872,1.4878,1.4883,1.4903,1.4911,1.4821,1.4821,1.4821,1.4821,0,1.4301,1.4347,1.4379,1.4438,1.4471,1.4518,1.4551,1.4582,1.4595,1.4621,1.4683,1.4725,1.478,1.4798,1.4812,1.4872,1.4867,1.4866,1.4854,1.489,1.4909,1.4917,1.4822,1.4822,1.4822,1.4822,0,0,1.4343,1.4415,1.4426,1.4453,1.4509,1.4546,1.4594,1.4647,1.4673,1.4715,1.4757,1.4824,1.4824,1.4856,1.4874,1.4905,1.4947,1.49,1.4902,1.4908,1.5016,1.5016,1.5025,1.4953,1.4955,1.4956,1.5012,0,1.4394,1.4478,1.4503,1.4575,1.4618,1.4634,1.4676,1.4715,1.474,1.4782,1.481,1.4858,1.4853,1.4873,1.4904,1.4935,1.497,1.4932,1.4993,1.4994,1.498,1.5035,1.5036,1.5087,1.502,1.5021,1.5022,0,1.4465,1.4508,1.4583,1.4634,1.4653,1.469,1.474,1.4779,1.4825,1.4841,1.4876,1.4892,1.4943,1.4928,1.4999,1.4973,1.4999,1.5019,1.5021,1.5028,1.501,1.5044,1.5103,1.5111,1.5034,1.5033,1.5032,0,1.4488,1.4565,1.462,1.4643,1.4703,1.4729,1.4755,1.4799,1.4829,1.4874,1.4893,1.4943,1.4971,1.501,1.5039,1.5025,1.5108,1.5095,1.5123,1.5123,1.514,1.5139,1.5205,1.5157,1.5157,1.5157,1.5156,0,1.4542,1.4588,1.4631,1.4665,1.4717,1.4745,1.4796,1.4824,1.4863,1.4903,1.492,1.4957,1.4993,1.5035,1.5058,1.5114,1.5127,1.5142,1.5147,1.514,1.5138,1.5158,1.5156,1.5159,1.5158,1.5158,1.5157,0,1.4577,1.4608,1.4669,1.4721,1.4735,1.4771,1.4816,1.485,1.4876,1.4927,1.494,1.4981,1.5032,1.5065,1.513,1.5145,1.5206,1.5211,1.5191,1.5193,1.522,1.5217,1.5302,1.5315,1.5257,1.5258,1.5258,0,1.461,1.4645,1.4701,1.4728,1.4755,1.4799,1.483,1.4859,1.489,1.4945,1.4972,1.5024,1.5067,1.5148,1.5184,1.5234,1.524,1.5266,1.5248,1.5239,1.5241,1.5238,1.5242,1.5269,1.527,1.527,1.527,0,1.4665,1.4678,1.4721,1.477,1.4806,1.4845,1.4885,1.4907,1.4943,1.4978,1.5029,1.5063,1.5129,1.518,1.5233,1.5261,1.5272,1.5276,1.5285,1.5278,1.5265,1.5273,1.5199,1.5274,1.5273,1.5273,1.5273,1.5273,1.47,1.4732,1.4776,1.4824,1.4857,1.4893,1.4928,1.4958,1.5001,1.5056,1.5071,1.5125,1.517,1.5242,1.5271,1.5315,1.5311,1.5325,1.5328,1.5331,1.5332,1.5258,1.5325,1.5325,1.5325,1.5325,1.5324,0,1.4756,1.4785,1.4828,1.4883,1.4921,1.4926,1.4971,1.5002,1.5049,1.5089,1.5131,1.5191,1.524,1.528,1.5332,1.5359,1.5365,1.5371,1.537,1.5376,1.5332,1.5318,1.5365,1.5365,1.5365,1.5365,1.5365,1.5365,1.479,1.4845,1.4863,1.4935,1.4964,1.5016,1.5041,1.5075,1.5108,1.5173,1.5214,1.5239,1.528,1.5334,1.538,1.5391,1.5409,1.5415,1.5426,1.5384,1.5379,1.5375,1.5363,1.5418,1.5418,1.5467,1.5468,1.5468]},{"header":{"parameterUnit":"m.s-1","parameterCategory":1,"la1":30.2991,"la2":30.254,"lo1":-89.0895,"lo2":-89.0444,"dy":0.0017,"dx":0.0017,"nx":28,"ny":28,"refTime":"2023-07-27T21:00:00:Z","depth":0,"parameterNumber":3,"parameterNumberName":"V-component_of_WINDS"},"data":[0,0,0,0,0,0,0,0,0,0,0,0,0,0,0,0,0,0,0,0,0,0,0,0,0,0,0,0,0,0,0,0,0,0,0,0,0,0,0,0,0,0,0,0,0,0,0,0,0,0,0,0,0,0,0,0,0,0,2.3644,2.3644,0,2.3665,2.3666,2.3666,2.3671,2.3671,2.3671,2.3671,2.369,2.3691,2.3691,0,0,0,0,0,0,0,0,0,0,0,0,0,2.3602,2.3602,2.3644,2.3644,2.3644,2.3665,2.3666,2.3666,2.3671,2.3671,2.3671,2.3671,2.369,2.3691,2.3691,0,0,0,0,0,0,0,0,0,0,0,0,0,2.3621,2.3603,2.3644,2.365,2.365,2.3665,2.3666,2.3666,2.3671,2.3671,2.3671,2.3671,2.369,2.369,2.3691,2.3701,0,0,2.3694,2.3695,0,0,0,0,0,0,0,0,2.362,2.3623,2.3648,2.3649,2.365,2.3666,2.3658,2.3678,2.3671,2.3663,2.3671,2.3671,2.3682,2.3683,2.3688,2.3702,2.3703,2.3694,2.3695,2.3695,2.3696,0,0,0,0,0,0,0,2.3619,2.3622,2.3652,2.3649,2.365,2.3649,2.3652,2.3661,2.3673,2.3664,2.3665,2.3667,2.3682,2.3687,2.3688,2.3703,2.3694,2.3695,2.3696,2.3696,2.3722,2.3722,0,0,0,0,0,0,2.3617,2.3621,2.3652,2.3653,2.3634,2.365,2.3653,2.3661,2.3673,2.3675,2.3667,2.3667,2.3685,2.3687,2.3689,2.3698,2.3695,2.3696,2.3697,2.3721,2.3722,2.3722,0,0,0,0,0,0,2.3616,2.362,2.3651,2.3637,2.3641,2.3651,2.366,2.3661,2.3666,2.3676,2.3677,2.367,2.3685,2.3688,2.3697,2.3699,2.3697,2.3697,2.3721,2.3721,2.3722,2.3719,0,0,0,0,0,0,2.3615,2.3619,2.3625,2.3637,2.3642,2.366,2.366,2.3662,2.3668,2.3668,2.3679,2.368,2.3685,2.3696,2.3698,2.3701,2.3698,2.3721,2.3721,2.3722,2.3719,2.3719,2.3719,0,0,0,0,0,2.3613,2.3623,2.3625,2.3629,2.3649,2.3661,2.3663,2.3669,2.3668,2.3672,2.3678,2.368,2.3699,2.3697,2.3699,2.3702,2.3721,2.3721,2.3722,2.3719,2.3719,2.3719,0,0,0,0,0,0,2.3611,2.3625,2.3627,2.3642,2.365,2.3662,2.3668,2.367,2.3678,2.3678,2.3684,2.3686,2.3694,2.3699,2.3697,2.371,2.371,2.371,2.3707,2.3707,2.3707,2.3705,2.3699,0,0,0,0,0,2.3612,2.3622,2.3634,2.3645,2.3649,2.3657,2.3663,2.3667,2.3675,2.3678,2.3685,2.3691,2.3698,2.3703,2.371,2.372,2.372,2.3722,2.3722,2.3722,2.3723,2.3725,2.3725,2.3723,2.3722,2.3722,0,0,2.3615,2.3624,2.363,2.3645,2.3652,2.366,2.366,2.367,2.3675,2.3679,2.3689,2.3693,2.3701,2.3709,2.3713,2.3714,2.3724,2.3723,2.3723,2.3723,2.3725,2.3725,2.3726,2.3723,2.3723,2.3723,0,0,2.3624,2.3633,2.3642,2.3648,2.3658,2.3663,2.3665,2.3675,2.3679,2.3688,2.369,2.3695,2.3708,2.3713,2.3717,2.3722,2.3724,2.3724,2.3725,2.3727,2.3727,2.3727,2.3727,2.3727,2.3725,2.3725,2.3725,0,2.3626,2.364,2.3646,2.3655,2.366,2.3664,2.3671,2.3677,2.3688,2.369,2.369,2.3704,2.371,2.3718,2.3719,2.3723,2.3723,2.3724,2.3727,2.3727,2.3727,2.3727,2.3727,2.3725,2.3725,2.3725,2.3725,0,2.364,2.3649,2.3655,2.3666,2.3671,2.3679,2.3685,2.3689,2.3692,2.3695,2.3703,2.3709,2.3716,2.3718,2.3721,2.3726,2.3725,2.3726,2.3726,2.3727,2.3727,2.3727,2.3725,2.3725,2.3725,2.3725,0,0,2.3651,2.3662,2.3664,2.3667,2.3677,2.3683,2.3689,2.3697,2.3699,2.3706,2.371,2.3719,2.3718,2.3722,2.3725,2.3727,2.3728,2.3727,2.3727,2.3725,2.373,2.3729,2.3729,2.3728,2.3728,2.3728,2.3729,0,2.3659,2.3672,2.3677,2.3687,2.3693,2.3695,2.37,2.3705,2.3708,2.3712,2.3715,2.372,2.3721,2.3723,2.3725,2.3727,2.3728,2.3727,2.373,2.373,2.3728,2.3729,2.3729,2.3729,2.3729,2.3729,2.3729,0,2.3672,2.3678,2.3689,2.3694,2.3697,2.3702,2.3706,2.3711,2.3716,2.3717,2.372,2.3722,2.3726,2.3725,2.3729,2.3728,2.3729,2.373,2.373,2.373,2.3729,2.3728,2.3729,2.3729,2.3729,2.3729,2.3729,0,2.3676,2.3687,2.3693,2.3696,2.3704,2.3706,2.3709,2.3713,2.3716,2.3719,2.3721,2.3725,2.3727,2.3728,2.373,2.373,2.3733,2.3733,2.3732,2.3732,2.3733,2.3733,2.3734,2.3735,2.3735,2.3735,2.3735,0,2.3684,2.369,2.3695,2.3699,2.3704,2.3708,2.3712,2.3715,2.3718,2.3721,2.3723,2.3725,2.3727,2.3729,2.373,2.3732,2.3733,2.3733,2.3733,2.3732,2.3732,2.3733,2.3732,2.3735,2.3735,2.3735,2.3735,0,2.369,2.3693,2.3701,2.3706,2.3707,2.371,2.3714,2.3717,2.3718,2.3722,2.3723,2.3725,2.3727,2.3729,2.3732,2.3732,2.3733,2.3734,2.3732,2.3732,2.3731,2.373,2.3731,2.3731,2.3734,2.3734,2.3734,0,2.3695,2.3699,2.3704,2.3706,2.3709,2.3713,2.3715,2.3717,2.3719,2.3722,2.3724,2.3726,2.3728,2.373,2.3732,2.3733,2.3733,2.3733,2.3733,2.3731,2.373,2.373,2.3729,2.3733,2.3732,2.3732,2.3732,0,2.3702,2.3703,2.3707,2.371,2.3713,2.3716,2.3719,2.372,2.3722,2.3724,2.3726,2.3727,2.3729,2.373,2.3731,2.3732,2.3731,2.3732,2.3732,2.3731,2.3729,2.3728,2.3731,2.3732,2.3732,2.3732,2.3732,2.3732,2.3707,2.3709,2.3712,2.3716,2.3717,2.3719,2.3721,2.3723,2.3725,2.3727,2.3727,2.3729,2.3729,2.373,2.373,2.373,2.373,2.373,2.373,2.373,2.3729,2.3729,2.373,2.373,2.373,2.373,2.373,0,2.3713,2.3714,2.3717,2.372,2.3722,2.3722,2.3724,2.3725,2.3726,2.3727,2.3728,2.3729,2.3729,2.3729,2.3729,2.3728,2.3728,2.3728,2.3728,2.3727,2.373,2.3729,2.3728,2.3728,2.3728,2.3728,2.3728,2.3728,2.3716,2.372,2.372,2.3723,2.3724,2.3726,2.3727,2.3727,2.3728,2.3729,2.3729,2.3729,2.3728,2.3728,2.3727,2.3727,2.3726,2.3725,2.3725,2.3727,2.3727,2.3728,2.3727,2.3726,2.3726,2.3722,2.3722,2.3722]}]]